TimeMDT,TemperatureF,Dew PointF,Humidity,Sea Level PressureIn,VisibilityMPH,Wind Direction,Wind SpeedMPH,Gust SpeedMPH,PrecipitationIn,Events,Conditions,WindDirDegrees,DateUTC
12:55 AM,46.4,46.4,100,30.00,8.0,ESE,3.5,-,N/A,,Scattered Clouds,110,2012-10-29 06:55:00
1:55 AM,45.0,45.0,100,30.01,10.0,East,3.5,-,N/A,,Clear,80,2012-10-29 07:55:00
2:55 AM,44.2,44.2,100,30.01,10.0,Calm,Calm,-,N/A,,Clear,0,2012-10-29 08:55:00
3:07 AM,44.6,44.6,100,30.01,5.0,Calm,Calm,-,N/A,,Clear,0,2012-10-29 09:07:00
3:22 AM,44.6,44.6,100,30.01,2.5,Calm,Calm,-,N/A,,Clear,0,2012-10-29 09:22:00
3:27 AM,44.6,44.6,100,30.01,2.5,Calm,Calm,-,N/A,,Clear,0,2012-10-29 09:27:00
3:55 AM,43.5,43.5,100,30.01,10.0,Calm,Calm,-,N/A,,Clear,0,2012-10-29 09:55:00
4:55 AM,43.3,43.3,100,30.01,10.0,East,4.6,-,N/A,,Scattered Clouds,80,2012-10-29 10:55:00
5:55 AM,44.8,44.8,100,30.01,10.0,SE,5.8,-,N/A,,Mostly Cloudy,130,2012-10-29 11:55:00
6:55 AM,44.2,44.2,100,30.02,10.0,ESE,5.8,-,N/A,,Overcast,120,2012-10-29 12:55:00
7:55 AM,44.1,44.1,100,30.05,10.0,East,3.5,-,N/A,,Scattered Clouds,90,2012-10-29 13:55:00
8:55 AM,43.7,43.7,100,30.07,10.0,ESE,6.9,-,N/A,,Clear,110,2012-10-29 14:55:00
9:55 AM,50.4,50.4,100,30.09,10.0,ESE,6.9,-,N/A,,Clear,110,2012-10-29 15:55:00
10:55 AM,58.1,45.3,62,30.10,10.0,ESE,5.8,-,N/A,,Clear,120,2012-10-29 16:55:00
11:55 AM,62.8,42.3,47,30.10,10.0,ESE,4.6,-,N/A,,Clear,120,2012-10-29 17:55:00
12:55 PM,66.9,40.5,38,30.09,9.0,Calm,Calm,-,N/A,,Clear,0,2012-10-29 18:55:00
1:55 PM,68.9,37.2,31,30.06,2.0,NW,10.4,-,N/A,,Haze,320,2012-10-29 19:55:00
1:56 PM,68.0,37.4,33,30.40,10.0,NW,10.4,-,N/A,,Partly Cloudy,310,2012-10-29 19:56:00
2:55 PM,70.5,37.9,30,30.05,10.0,North,10.4,-,N/A,,Partly Cloudy,350,2012-10-29 20:55:00
3:55 PM,70.5,36.5,29,30.04,10.0,North,12.7,-,N/A,,Partly Cloudy,350,2012-10-29 21:55:00
4:55 PM,68.2,36.9,32,30.06,10.0,North,15.0,-,N/A,,Partly Cloudy,350,2012-10-29 22:55:00
5:55 PM,66.6,38.7,36,30.07,10.0,North,10.4,-,N/A,,Clear,360,2012-10-29 23:55:00
6:55 PM,63.9,39.0,40,30.09,10.0,NNW,9.2,-,N/A,,Partly Cloudy,340,2012-10-30 00:55:00
7:55 PM,55.4,39.4,55,30.12,10.0,NNW,3.5,-,N/A,,Clear,340,2012-10-30 01:55:00
8:55 PM,53.6,39.4,59,30.13,10.0,WNW,4.6,-,N/A,,Clear,290,2012-10-30 02:55:00
9:55 PM,50.5,39.0,65,30.13,10.0,WNW,4.6,-,N/A,,Clear,300,2012-10-30 03:55:00
10:55 PM,46.4,40.8,81,30.14,10.0,Calm,Calm,-,N/A,,Overcast,0,2012-10-30 04:55:00
11:55 PM,43.5,40.1,88,30.14,10.0,ESE,3.5,-,N/A,,Clear,120,2012-10-30 05:55:00